Location: Unspecified
(0.0000°N, 0.0000°E)
Time: 00:51:16
(UTC+00:00)

QIANFAN-31 - Pass Details

Date: 08 March 2026
Orbit: 1037 x 1049 km, 89.0° (Epoch: 14 April)

Event Time Altitude Azimuth Distance (km) Brightness Sun altitude
Rises 04:28:03 0° 34° (NE) 3,780 ? -25.6°
Reaches altitude 10° 04:31:28 10° 52° (NE) 2,831 ? -24.8°
Maximum altitude 04:35:43 18° 93° (E) 2,272 ? -23.7°
Drops below altitude 10° 04:39:58 10° 135° (SE) 2,841 ? -22.6°
Sets 04:43:21 0° 152° (SSE) 3,798 ? -21.8°
